Flag for United Kingdom

Past Weather in Newcastle upon Tyne, England, United Kingdom — February 2020

Now
46 °F

Passing clouds.


Feels Like: 40 °F
Forecast: N/A
Wind: 15 mph from West

Location: Newcastle
Current Time: Oct 26, 2020 at 10:07:32 pm
Latest Report: Oct 26, 2020 at 9:20 pm
Visibility: N/A
Pressure29.30 "Hg
Humidity: 87%
Dew Point: 43 °F
Location of Newcastle upon TyneLocation

February 2020 Weather in Newcastle upon Tyne — Graph

°F

High & Low Weather Summary for February 2020

 TemperatureHumidityPressure
High52 °F (Feb 9, 8:50 am)100% (Feb 1, 6:50 pm)30.57 "Hg (Feb 1, 6:50 pm)
Low30 °F (Feb 6, 8:20 pm)53% (Feb 26, 2:20 pm)28.50 "Hg (Feb 29, 8:50 pm)
Average41 °F86%29.51 "Hg
* Reported Feb 1 12:20 am — Feb 29 11:50 pm, Newcastle upon Tyne. Weather by CustomWeather, © 2020

Note: Actual official high and low records may vary slightly from our data, if they occured in-between our weather recording intervals... More about our weather records

Newcastle upon Tyne Weather History for February 1, 2020

Scroll right to see more
 ConditionsComfort  
Time TempWeatherWind HumidityBarometerVisibility
12:20 am
Sat, Feb 1
48 °FClear.18 mph82%29.21 "Hg10 mi
12:50 am48 °FPassing clouds.23 mph71%29.21 "HgN/A
1:20 am48 °FPassing clouds.21 mph71%29.21 "HgN/A
1:50 am48 °FPassing clouds.22 mph66%29.21 "HgN/A
2:20 am48 °FClear.16 mph71%29.21 "Hg10 mi
2:50 am46 °FPassing clouds.16 mph82%29.21 "HgN/A
3:20 am46 °FPassing clouds.16 mph82%29.18 "HgN/A
3:50 am48 °FPassing clouds.21 mph71%29.18 "HgN/A
4:20 am48 °FPassing clouds.21 mph71%29.18 "HgN/A
4:50 am46 °FLight rain. Passing clouds.22 mph76%29.18 "HgN/A
5:20 am46 °FPassing clouds.25 mph76%29.18 "HgN/A
5:50 am46 °FPassing clouds.26 mph76%29.15 "HgN/A
6:20 am46 °FPassing clouds.28 mph76%29.15 "HgN/A
6:50 am46 °FPassing clouds.28 mph76%29.15 "HgN/A
7:20 am46 °FPassing clouds.26 mph82%29.15 "HgN/A
7:50 am45 °FPassing clouds.22 mph87%29.15 "HgN/A
8:20 am46 °FLight rain. Scattered clouds.20 mph76%29.18 "HgN/A
8:50 am46 °FLight rain. Passing clouds.21 mph76%29.18 "HgN/A
9:20 am46 °FLight rain. Passing clouds.24 mph76%29.18 "HgN/A
9:50 am46 °FLight rain. Passing clouds.28 mph76%29.18 "HgN/A
10:20 am46 °FPassing clouds.28 mph76%29.21 "HgN/A
10:50 am46 °FDrizzle. Partly sunny.29 mph76%29.21 "HgN/A
11:20 am46 °FPartly sunny.32 mph82%29.24 "HgN/A
11:50 am48 °FPartly sunny.32 mph76%29.24 "HgN/A
12:50 pm46 °FPartly sunny.31 mph82%29.24 "HgN/A
1:20 pm46 °FScattered clouds.31 mph82%29.27 "HgN/A
1:50 pm46 °FDrizzle. Partly sunny.33 mph87%29.27 "HgN/A
2:20 pm46 °FScattered showers. Partly sunny.31 mph87%29.30 "HgN/A
2:50 pm46 °FScattered showers. Partly sunny.25 mph87%29.33 "HgN/A
3:20 pm46 °FPartly sunny.24 mph87%29.33 "HgN/A
3:50 pm46 °FPartly sunny.24 mph87%29.36 "HgN/A
4:20 pm46 °FPartly sunny.22 mph87%29.36 "HgN/A
4:50 pm46 °FPassing clouds.20 mph93%29.39 "HgN/A
5:20 pm46 °FPassing clouds.22 mph87%29.42 "HgN/A
5:50 pm45 °FPassing clouds.20 mph93%29.45 "HgN/A
6:20 pm43 °FPassing clouds.10 mph93%29.50 "HgN/A
6:50 pm41 °FLight rain. Passing clouds.8 mph100%29.53 "Hg5 mi
7:20 pm41 °FLight rain. Passing clouds.6 mph100%29.56 "Hg6 mi
7:50 pm41 °FLight rain. Passing clouds.5 mph100%29.56 "Hg5 mi
8:20 pm41 °FLight rain. Passing clouds.1 mph100%29.59 "Hg6 mi
8:50 pm41 °FLight rain. Passing clouds.1 mph100%29.62 "Hg6 mi
9:20 pm41 °FScattered showers. Passing clouds.2 mph100%29.62 "HgN/A
9:50 pm41 °FLight rain. Passing clouds.2 mph100%29.62 "Hg6 mi
10:20 pm41 °FSprinkles. Partly cloudy.3 mph100%29.62 "HgN/A
10:50 pm41 °FSprinkles. Partly cloudy.8 mph100%29.62 "HgN/A
11:20 pm39 °FScattered showers. Passing clouds.7 mph100%29.62 "HgN/A
11:50 pm39 °FPassing clouds.6 mph100%29.65 "HgN/A
Weather by CustomWeather, © 2020

See weather overview